Weather Roundup
Issued by NWS Chicago, IL

Home | Current Version | Previous Version | Graphics & Text | Print | Product List | Glossary On
Versions: 1 2 3 4 5 6 7 8 9 10 11 12 13 14 15 16 17 18 19 20 21 22 23 24 25 26 27 28 29 30 31 32 33 34 35 36 37 38 39 40 41 42 43 44 45 46 47 48 49 50
000
NZUS59 KLOT 301321
HRRLOT

CHICAGO AREA WEATHER ROUNDUP
NATIONAL WEATHER SERVICE CHICAGO/ROMEOVILLE IL
800 AM CDT SAT MAY 30 2015

NOTE: "FAIR" INDICATES FEW OR NO CLOUDS BELOW 12,000 FEET WITH NO
SIGNIFICANT WEATHER AND/OR OBSTRUCTIONS TO VISIBILITY.

* THESE STATIONS ARE NOT UNDER NWS QUALITY CONTROL. THEY ALSO MAY NOT
  REPORT WEATHER SUCH AS PRECIPITATION OR FOG.

ILZ005-006-012>014-019>023-301400-
NORTHEAST ILLINOIS

CITY           SKY/WX    TMP DP  RH WIND       PRES   REMARKS
OHARE          LGT RAIN  67  64  90 W5        29.97S
MIDWAY         LGT RAIN  70  67  90 W6        29.97S
AURORA         CLOUDY    67  62  84 W6        29.98S
LANSING*       LGT RAIN  69  65  88 SW3       29.99R
JOLIET*        DRIZZLE   69  68  96 CALM      29.98R
WAUKEGAN       LGT RAIN  66  63  90 NW3       29.97S
DUPAGE AIRPORT LGT RAIN  67  64  90 W3        29.97S
WHEELING       LGT RAIN  68  64  87 W6        29.98F
KANKAKEE*      RAIN      66  65  96 SE5       30.01R
MORRIS*        LGT RAIN  67  64  91 NW6       29.97R
LEWIS AIRPORT* RAIN      68  65  92 W5        29.99R
NORTHERLY IS     N/A     69  65  86 W3          N/A
$$

WIZ051-052-058>065-066-070>072-301400-
SOUTHEAST WISCONSIN

CITY           SKY/WX    TMP DP  RH WIND       PRES   REMARKS
MILWAUKEE      LGT RAIN  51  49  92 NE15G22   30.02R FOG
KENOSHA*       LGT RAIN  56  54  93 NE14      30.00R
RACINE*        RAIN      51  48  89 N17G23    30.03R FOG
BURLINGTON     RAIN      64  63  98 CALM      29.98R
WAUKESHA       RAIN      52  52 100 NE8G22    30.02R
WEST BEND      LGT RAIN  52  46  82 NE13G20   30.03R
$$

INZ001>003-010>013-019-020-301400-
NORTHWEST INDIANA

CITY           SKY/WX    TMP DP  RH WIND       PRES   REMARKS
GARY*          CLOUDY    70  70 100 CALM      29.99R
MICHIGAN CITY* NOT AVBL
RENSSELAER*    NOT AVBL
VALPARAISO     CLOUDY    69  67  93 S5        30.01R
$$

LMZ740>746-301400-
SOUTHERN LAKE MICHIGAN

STATION/POSITION TIME  SKY/WX   TEMP WIND        PRES    VSBY
                                AIR  DIR/SP/G
                 (UTC)          (F)  (DEG/KT/KT) (MB)    (MI)
HARRISON CRIB    1300            67  290/  2/  3   N/A
BURNHAM HARBOR   1300            69  310/  3/  7   N/A
CALUMET HARBOR   1200            68  200/  3/  3   N/A
BURNS HARBOR     1200            67  230/  5/  7 1015.6R
MICHIGAN CITY    1300            68  180/  5/  6   N/A
$$

ABBREVIATIONS USED IN REMARKS
   TC - TEMPERATURE IN CELSIUS
  WCI - WIND CHILL INDEX
   HX - HEAT INDEX
  VSB - VISIBILITY
$$



USA.gov is the U.S. government's official web portal to all federal, state and local government web resources and services.